AB4PS Weather Reports


time (UTC)temp
C
wind
direction
speed
KPH
gust
KPH
rain 1hr
cm
rain 24hr
cm
rain mn
cm
humidity
%
barometer
mb
20260503200118 23 208 1.6 1.6 0.00 0.00 0.00 27 1017.9
20260503195615 23 272 4.8 4.8 0.00 0.00 0.00 27 1017.9
20260503195112 23 205 1.6 1.6 0.00 0.00 0.00 30 1018.0
20260503194609 23 312 4.8 4.8 0.00 0.00 0.00 26 1018.2
20260503194104 22 346 1.6 1.6 0.00 0.00 0.00 25 1018.0
20260503193601 22 269 9.7 11.3 0.00 0.00 0.00 26 1018.2
20260503193056 22 248 3.2 4.8 0.00 0.00 0.00 25 1018.4
20260503192553 23 222 3.2 4.8 0.00 0.00 0.00 23 1018.5
20260503192049 22 198 1.6 1.6 0.00 0.00 0.00 24 1018.5
20260503191545 22 178 3.2 3.2 0.00 0.00 0.00 25 1018.7
20260503191042 22 216 1.6 1.6 0.00 0.00 0.00 25 1018.7
20260503190539 22 221 9.7 12.9 0.00 0.00 0.00 23 1018.8
20260503190037 22 239 3.2 3.2 0.00 0.00 0.00 31 1018.9
20260503185533 22 257 1.6 1.6 0.00 0.00 0.00 31 1019.0
20260503185032 22 251 4.8 4.8 0.00 0.00 0.00 32 1019.1
20260503184529 22 193 4.8 6.4 0.00 0.00 0.00 29 1019.1
20260503184026 22 254 3.2 3.2 0.00 0.00 0.00 31 1019.1
20260503183522 21 226 4.8 4.8 0.00 0.00 0.00 33 1019.1
20260503183019 22 247 4.8 4.8 0.00 0.00 0.00 31 1019.2
20260503182518 22 261 4.8 9.7 0.00 0.00 0.00 28 1019.1
20260503182015 22 213 1.6 1.6 0.00 0.00 0.00 32 1019.4
20260503181512 21 215 4.8 4.8 0.00 0.00 0.00 32 1019.4
20260503181008 21 256 3.2 3.2 0.00 0.00 0.00 33 1019.3
20260503180506 21 226 3.2 3.2 0.00 0.00 0.00 34 1019.5
20260503180003 21 195 1.6 1.6 0.00 0.00 0.00 34 1019.5
20260503175501 21 132 3.2 4.8 0.00 0.00 0.00 33 1019.6
20260503174957 21 325 3.2 4.8 0.00 0.00 0.00 35 1019.6
20260503174455 21 254 4.8 4.8 0.00 0.00 0.00 35 1019.7
20260503173950 21 171 1.6 3.2 0.00 0.00 0.00 34 1019.6
20260503173446 21 209 1.6 1.6 0.00 0.00 0.00 33 1019.7
20260503172943 21 265 1.6 1.6 0.00 0.00 0.00 33 1019.7
20260503172440 21 1 1.6 1.6 0.00 0.00 0.00 36 1019.8
20260503171937 20 279 3.2 3.2 0.00 0.00 0.00 33 1019.8
20260503171433 20 344 3.2 3.2 0.00 0.00 0.00 33 1020.0
20260503170931 20 232 3.2 4.8 0.00 0.00 0.00 34 1020.0
20260503170427 20 128 3.2 3.2 0.00 0.00 0.00 35 1020.3
20260503150819 18 247 3.2 3.2 0.00 0.00 0.00 39 1020.9
20260503150315 17 34 0.0 0.0 0.00 0.00 0.00 40 1021.1
20260503140240 15 48 3.2 3.2 0.00 0.00 0.00 50 1020.6
20260503131209 12 165 3.2 4.8 0.00 0.00 0.00 63 1020.5
20260503130707 12 123 1.6 3.2 0.00 0.00 0.00 64 1020.5
20260503130204 11 134 1.6 3.2 0.00 0.00 0.00 65 1020.4
20260503120130 8 25 1.6 1.6 0.00 0.00 0.00 95 1020.0
20260503110557 8 146 0.0 0.0 0.00 0.00 0.00 98 1019.3
20260503090444 7 146 0.0 0.0 0.00 0.00 0.00 97 1017.8
20260503081410 7 146 0.0 0.0 0.00 0.00 0.00 97 1017.3
20260503080908 7 146 0.0 0.0 0.00 0.00 0.00 97 1017.1
20260503080404 8 146 0.0 0.0 0.00 0.00 0.00 97 1017.3
20260503072840 8 146 0.0 0.0 0.00 0.00 0.00 96 1017.2
20260503072337 8 146 0.0 0.0 0.00 0.00 0.00 96 1016.9
20260503071834 8 146 0.0 0.0 0.00 0.00 0.00 96 1016.9
20260503071331 8 146 0.0 0.0 0.00 0.00 0.00 96 1017.0
20260503070827 8 146 0.0 0.0 0.00 0.00 0.00 96 1016.8
20260503070326 8 146 0.0 0.0 0.00 0.00 0.00 96 1016.9
20260503060250 9 146 0.0 0.0 0.00 0.00 0.00 94 1016.6
20260503054737 9 146 0.0 0.0 0.00 0.00 0.00 93 1016.5
20260503054234 10 146 0.0 0.0 0.00 0.00 0.00 93 1016.6
20260503053732 10 146 0.0 0.0 0.00 0.00 0.00 93 1016.3
20260503053231 10 146 0.0 0.0 0.00 0.00 0.00 92 1016.4
20260503052726 10 146 0.0 0.0 0.00 0.00 0.00 92 1016.4
20260503052223 10 146 0.0 0.0 0.00 0.00 0.00 90 1016.2
20260503051718 10 146 0.0 0.0 0.00 0.00 0.00 89 1016.3
20260503051217 11 146 0.0 0.0 0.00 0.00 0.00 88 1016.5
20260503050713 11 146 0.0 0.0 0.00 0.00 0.00 88 1016.3
20260503050209 11 146 0.0 0.0 0.00 0.00 0.00 88 1016.1
20260503045707 11 146 0.0 0.0 0.00 0.00 0.00 87 1016.3
20260503045204 11 146 0.0 0.0 0.00 0.00 0.00 86 1016.2
20260503044700 12 146 0.0 0.0 0.00 0.00 0.00 86 1016.3
20260503044158 12 146 0.0 0.0 0.00 0.00 0.00 85 1016.4
20260503043654 12 146 0.0 0.0 0.00 0.00 0.00 85 1016.3
20260503043152 12 146 0.0 0.0 0.00 0.00 0.00 86 1016.4
20260503042648 12 146 0.0 0.0 0.00 0.00 0.00 88 1016.2
20260503042144 12 146 0.0 0.0 0.00 0.00 0.00 87 1016.3
20260503041641 12 146 0.0 0.0 0.00 0.00 0.00 87 1016.3
20260503041139 12 146 0.0 0.0 0.00 0.00 0.00 86 1016.3
20260503040636 12 146 0.0 0.0 0.00 0.00 0.00 87 1016.3
20260503040133 12 146 0.0 0.0 0.00 0.00 0.00 88 1016.4
20260503035630 12 146 0.0 0.0 0.00 0.99 0.99 87 1016.1
20260503035128 12 146 1.6 1.6 0.00 0.99 0.99 88 1016.0
20260503034625 12 146 0.0 0.0 0.00 0.99 0.99 87 1015.9
20260503034122 12 146 0.0 1.6 0.00 0.99 0.99 87 1016.3
20260503033619 12 146 1.6 1.6 0.00 0.99 0.99 87 1016.4
20260503033117 12 146 0.0 0.0 0.00 0.99 0.99 87 1016.2
20260503032615 12 146 0.0 0.0 0.00 0.99 0.99 88 1016.2
20260503032113 12 146 0.0 0.0 0.00 0.99 0.99 86 1016.2
20260503031610 12 146 0.0 0.0 0.00 0.99 0.99 86 1016.1
20260503031108 11 146 0.0 0.0 0.00 0.99 0.99 87 1016.1
20260503030603 11 146 0.0 0.0 0.00 0.99 0.99 87 1016.0
20260503030100 11 146 0.0 0.0 0.00 0.99 0.99 88 1016.0
20260503025557 11 146 0.0 0.0 0.00 0.99 0.99 89 1015.8
20260503025055 11 146 0.0 0.0 0.00 0.99 0.99 90 1015.9
20260503024550 11 146 0.0 0.0 0.00 0.99 0.99 91 1015.8
20260503024048 11 146 0.0 0.0 0.00 0.99 0.99 90 1015.3
20260503023544 11 146 0.0 0.0 0.00 0.99 0.99 90 1015.4
20260503023042 11 146 0.0 0.0 0.00 0.99 0.99 90 1015.3
20260503022538 11 146 0.0 0.0 0.00 0.99 0.99 90 1015.1
20260503022033 11 146 0.0 0.0 0.00 0.99 0.99 89 1014.9
20260503021530 11 146 0.0 0.0 0.00 0.99 0.99 90 1015.0
20260503021027 11 146 0.0 0.0 0.00 0.99 0.99 90 1014.9
20260503020524 11 146 0.0 0.0 0.00 0.99 0.99 90 1014.8
20260503020021 11 146 0.0 0.0 0.00 0.99 0.99 90 1014.8
20260503015518 11 146 0.0 0.0 0.00 0.99 0.99 90 1014.6
20260503015015 11 146 0.0 0.0 0.00 0.99 0.99 90 1014.7
20260503014511 11 146 0.0 0.0 0.00 0.99 0.99 90 1014.6
20260503014009 10 146 0.0 0.0 0.00 0.99 0.99 91 1014.4
20260503013506 10 146 0.0 0.0 0.00 0.99 0.99 91 1014.5
20260503013003 10 146 0.0 0.0 0.00 0.99 0.99 90 1014.3
20260503012501 10 146 0.0 0.0 0.00 0.99 0.99 90 1014.2
20260503011956 10 146 0.0 0.0 0.00 0.99 0.99 91 1014.2
20260503011454 10 146 0.0 0.0 0.00 0.99 0.99 90 1014.1
20260503010951 10 146 0.0 0.0 0.00 0.99 0.99 89 1014.3
20260503010447 10 146 0.0 0.0 0.00 0.99 0.99 89 1014.2
20260503005944 10 146 0.0 0.0 0.00 0.99 0.99 89 1013.8
20260503005442 10 146 0.0 0.0 0.00 0.99 0.99 89 1013.9
20260503004938 10 146 0.0 0.0 0.00 0.99 0.99 88 1013.8
20260503004435 11 146 0.0 0.0 0.00 0.99 0.99 87 1013.8
20260503003933 11 146 0.0 0.0 0.00 0.99 0.99 87 1013.9
20260503003429 11 146 0.0 0.0 0.00 0.99 0.99 86 1013.8
20260503002927 11 146 0.0 0.0 0.00 0.99 0.99 85 1013.5
20260503002424 11 146 0.0 0.0 0.00 0.99 0.99 85 1013.6
20260503001920 12 146 0.0 0.0 0.00 0.99 0.99 83 1013.6
20260503001416 12 146 0.0 0.0 0.00 0.99 0.99 81 1013.5
20260503000914 12 146 0.0 0.0 0.00 0.99 0.99 79 1013.5
20260503000411 12 146 0.0 0.0 0.00 0.99 0.99 77 1013.3
20260502235908 13 146 0.0 0.0 0.00 0.99 0.99 77 1013.4
20260502235405 13 146 0.0 0.0 0.00 0.99 0.99 75 1013.5
20260502234903 13 146 0.0 0.0 0.00 0.99 0.99 75 1013.0
20260502234359 13 146 1.6 1.6 0.00 0.99 0.99 73 1013.1
20260502233856 13 146 0.0 0.0 0.00 0.99 0.99 73 1013.1
20260502233352 14 145 1.6 1.6 0.00 0.99 0.99 70 1012.7
20260502232849 14 145 1.6 1.6 0.00 0.99 0.99 69 1012.8
20260502232345 15 141 0.0 1.6 0.00 0.99 0.99 69 1012.9
20260502231842 15 150 1.6 1.6 0.00 0.99 0.99 67 1012.8
20260502231340 15 340 1.6 1.6 0.00 0.99 0.99 67 1012.7
20260502230838 15 165 3.2 3.2 0.00 0.99 0.99 67 1012.8
20260502230336 15 130 0.0 0.0 0.00 0.99 0.99 66 1012.7
20260502225832 15 137 1.6 1.6 0.00 0.99 0.99 68 1012.8
20260502225329 15 131 1.6 1.6 0.00 0.99 0.99 67 1012.8
20260502224826 15 146 3.2 3.2 0.00 0.99 0.99 66 1012.8
20260502224322 15 4 1.6 1.6 0.00 0.99 0.99 65 1013.0
20260502223820 15 52 1.6 1.6 0.00 0.99 0.99 67 1012.7
20260502223317 15 74 0.0 0.0 0.00 0.99 0.99 69 1012.7
20260502222815 15 149 1.6 1.6 0.00 0.99 0.99 70 1012.8
20260502222312 15 154 3.2 3.2 0.00 0.99 0.99 68 1012.8
20260502221808 15 25 1.6 3.2 0.00 0.99 0.99 69 1012.8
20260502221304 15 296 1.6 1.6 0.00 0.99 0.99 68 1012.7
20260502220801 15 24 3.2 3.2 0.00 0.99 0.99 69 1012.7
20260502220257 15 36 1.6 1.6 0.00 0.99 0.99 70 1012.8
20260502215754 15 44 4.8 6.4 0.00 0.99 0.99 68 1012.9
20260502215251 15 3 0.0 0.0 0.00 0.99 0.99 69 1012.8
20260502214748 14 345 1.6 1.6 0.00 0.99 0.99 71 1012.7
20260502214245 14 69 1.6 1.6 0.00 0.99 0.99 68 1012.7
20260502213742 14 152 1.6 1.6 0.00 0.99 0.99 70 1012.7
20260502213239 14 346 1.6 1.6 0.00 0.99 0.99 68 1012.5
20260502212738 14 40 1.6 1.6 0.00 0.99 0.99 70 1012.4
20260502212236 14 162 3.2 3.2 0.00 0.99 0.99 68 1012.4
20260502211732 14 24 1.6 3.2 0.00 0.99 0.99 69 1012.3
20260502211229 14 24 1.6 1.6 0.00 0.99 0.99 69 1012.2
20260502210726 14 18 3.2 4.8 0.00 0.99 0.99 68 1012.2
20260502210223 15 151 3.2 3.2 0.00 0.99 0.99 68 1012.5
20260502205720 15 4 6.4 9.7 0.00 0.99 0.99 67 1012.6
20260502205216 15 199 3.2 3.2 0.00 0.99 0.99 67 1012.5
20260502204714 15 27 1.6 1.6 0.00 0.99 0.99 66 1012.6
20260502204211 15 28 3.2 3.2 0.00 0.99 0.99 67 1012.6
20260502203708 15 343 6.4 9.7 0.00 0.99 0.99 66 1012.6
20260502203206 15 17 6.4 9.7 0.00 0.99 0.99 66 1012.6
20260502202700 15 115 3.2 3.2 0.00 0.99 0.99 66 1012.4
20260502202159 15 129 6.4 6.4 0.00 0.99 0.99 68 1012.6
20260502201656 14 21 3.2 4.8 0.00 0.99 0.99 69 1012.4
20260502201152 13 70 1.6 1.6 0.00 0.99 0.99 70 1012.6
20260502200648 13 48 1.6 3.2 0.00 0.99 0.99 69 1012.6